Hourly Weather Abakaliki

Today, 28 February, Sunday

Time Temperature Precipitation Wind Pressure Humidity
00:00 +30°C° 0 mm 3 mps 750 mmHg 62%
01:00 +29°C° 0 mm 4 mps 749 mmHg 72%
02:00 +28°C° 0 mm 3 mps 749 mmHg 76%
03:00 +28°C° 0 mm 2 mps 749 mmHg 79%
04:00 +27°C° 0 mm 2 mps 749 mmHg 83%
05:00 +27°C° 0 mm 2 mps 749 mmHg 85%
06:00 +26°C° 0 mm 1 mps 749 mmHg 87%
07:00 +27°C° 0 mm 1 mps 750 mmHg 88%
08:00 +29°C° 0 mm 1 mps 750 mmHg 77%
09:00 +31°C° 0 mm 2 mps 751 mmHg 67%
10:00 +34°C° 0 mm 2 mps 751 mmHg 57%
11:00 +36°C° 0 mm 2 mps 750 mmHg 46%
12:00 +38°C° 0 mm 2 mps 749 mmHg 35%
13:00 +40°C° 0 mm 1 mps 748 mmHg 29%
14:00 +41°C° 0 mm 1 mps 747 mmHg 27%
15:00 +41°C° 0 mm 1 mps 746 mmHg 24%
16:00 +41°C° 0 mm 2 mps 746 mmHg 22%
17:00 +40°C° 0 mm 2 mps 746 mmHg 23%
18:00 +39°C° 0 mm 2 mps 746 mmHg 25%
19:00 +37°C° 0 mm 2 mps 746 mmHg 27%
20:00 +36°C° 0 mm 3 mps 747 mmHg 34%
21:00 +35°C° 0 mm 4 mps 748 mmHg 41%
22:00 +33°C° 0 mm 5 mps 748 mmHg 48%
23:00 +32°C° 0 mm 4 mps 748 mmHg 57%

Tomorrow, 1 March, Monday

Time Temperature Precipitation Wind Pressure Humidity
00:00 +30°C° 0 mm 4 mps 749 mmHg 66%
01:00 +29°C° 0 mm 3 mps 749 mmHg 75%
02:00 +29°C° 0 mm 3 mps 749 mmHg 77%
03:00 +28°C° 0 mm 2 mps 749 mmHg 79%
04:00 +28°C° 0 mm 2 mps 748 mmHg 81%
05:00 +28°C° 0 mm 2 mps 749 mmHg 83%
06:00 +27°C° 0 mm 2 mps 750 mmHg 84%
07:00 +27°C° 0 mm 2 mps 750 mmHg 85%
08:00 +29°C° 0 mm 2 mps 750 mmHg 76%
09:00 +31°C° 0 mm 3 mps 751 mmHg 66%
10:00 +34°C° 0 mm 3 mps 751 mmHg 57%
11:00 +36°C° 0 mm 2 mps 750 mmHg 47%
12:00 +39°C° 0 mm 1 mps 750 mmHg 38%
13:00 +38°C° 0 mm 0 mps 749 mmHg 28%
14:00 +42°C° 0 mm 1 mps 748 mmHg 26%
15:00 +42°C° 0 mm 1 mps 747 mmHg 24%
16:00 +42°C° 0 mm 1 mps 746 mmHg 22%
17:00 +40°C° 0 mm 1 mps 746 mmHg 24%
18:00 +39°C° 0 mm 1 mps 746 mmHg 26%
19:00 +36°C° 0 mm 1 mps 747 mmHg 29%
20:00 +36°C° 0 mm 2 mps 747 mmHg 35%
21:00 +35°C° 0 mm 3 mps 748 mmHg 41%
22:00 +34°C° 0 mm 4 mps 749 mmHg 47%
23:00 +33°C° 0 mm 4 mps 749 mmHg 54%

Day after tomorrow, 2 March, Tuesday

Time Temperature Precipitation Wind Pressure Humidity
00:00 +32°C° 0 mm 4 mps 749 mmHg 62%
01:00 +30°C° 0 mm 4 mps 749 mmHg 70%
02:00 +29°C° 0 mm 3 mps 749 mmHg 73%
03:00 +28°C° 0 mm 2 mps 749 mmHg 77%
04:00 +28°C° 0 mm 1 mps 749 mmHg 80%
05:00 +27°C° 0 mm 1 mps 749 mmHg 82%
06:00 +27°C° 0 mm 1 mps 750 mmHg 83%
07:00 +27°C° 0 mm 1 mps 750 mmHg 85%
08:00 +29°C° 0 mm 2 mps 751 mmHg 77%
09:00 +30°C° 0 mm 2 mps 751 mmHg 69%
10:00 +33°C° 0 mm 3 mps 752 mmHg 61%
11:00 +35°C° 0 mm 2 mps 751 mmHg 52%
12:00 +37°C° 0 mm 2 mps 750 mmHg 43%
13:00 +39°C° 0 mm 1 mps 749 mmHg 34%
14:00 +40°C° 0 mm 1 mps 749 mmHg 31%
15:00 +41°C° 0 mm 2 mps 748 mmHg 28%
16:00 +41°C° 0 mm 2 mps 747 mmHg 25%
17:00 +40°C° 0 mm 2 mps 747 mmHg 28%
18:00 +38°C° 0 mm 3 mps 747 mmHg 31%
19:00 +37°C° 0 mm 3 mps 747 mmHg 34%
20:00 +35°C° 0 mm 4 mps 748 mmHg 39%
21:00 +34°C° 0 mm 4 mps 748 mmHg 45%
22:00 +33°C° 0 mm 4 mps 749 mmHg 50%
23:00 +32°C° 0 mm 4 mps 749 mmHg 57%

3 March, Wednesday

Time Temperature Precipitation Wind Pressure Humidity
00:00 +30°C° 0 mm 4 mps 749 mmHg 64%
01:00 +29°C° 0 mm 4 mps 749 mmHg 70%
02:00 +29°C° 0 mm 3 mps 749 mmHg 74%
03:00 +28°C° 0 mm 2 mps 749 mmHg 78%
04:00 +27°C° 0 mm 1 mps 749 mmHg 82%
05:00 +27°C° 0 mm 1 mps 749 mmHg 83%
06:00 +27°C° 0 mm 1 mps 750 mmHg 84%
07:00 +27°C° 0 mm 1 mps 750 mmHg 86%
08:00 +29°C° 0 mm 1 mps 751 mmHg 76%
09:00 +31°C° 0 mm 2 mps 751 mmHg 67%
10:00 +34°C° 0 mm 2 mps 751 mmHg 57%
11:00 +36°C° 0 mm 2 mps 751 mmHg 48%
12:00 +37°C° 0 mm 1 mps 750 mmHg 38%
13:00 +41°C° 0 mm 1 mps 749 mmHg 28%
14:00 +41°C° 0 mm 1 mps 748 mmHg 25%
15:00 +42°C° 0 mm 1 mps 747 mmHg 23%
16:00 +42°C° 0 mm 1 mps 746 mmHg 20%
17:00 +41°C° 0 mm 2 mps 747 mmHg 22%
18:00 +40°C° 0 mm 2 mps 747 mmHg 24%
19:00 +38°C° 0 mm 3 mps 747 mmHg 25%
20:00 +37°C° 0 mm 3 mps 748 mmHg 34%
21:00 +35°C° 0 mm 3 mps 748 mmHg 43%
22:00 +34°C° 0 mm 4 mps 749 mmHg 52%
23:00 +33°C° 0 mm 4 mps 749 mmHg 57%

4 March, Thursday

Time Temperature Precipitation Wind Pressure Humidity
00:00 +32°C° 0 mm 4 mps 749 mmHg 63%
01:00 +30°C° 0 mm 4 mps 749 mmHg 69%
02:00 +29°C° 0 mm 3 mps 749 mmHg 72%
03:00 +29°C° 0 mm 3 mps 749 mmHg 74%
04:00 +29°C° 0 mm 2 mps 749 mmHg 77%
05:00 +28°C° 0 mm 2 mps 749 mmHg 79%
06:00 +28°C° 0 mm 2 mps 750 mmHg 81%
07:00 +27°C° 0 mm 2 mps 751 mmHg 83%
08:00 +29°C° 0 mm 2 mps 751 mmHg 74%
09:00 +31°C° 0 mm 2 mps 751 mmHg 64%
10:00 +34°C° 0 mm 2 mps 751 mmHg 55%
11:00 +36°C° 0 mm 2 mps 750 mmHg 45%
12:00 +38°C° 0 mm 2 mps 749 mmHg 35%
13:00 +40°C° 0 mm 2 mps 749 mmHg 25%
14:00 +41°C° 0 mm 2 mps 748 mmHg 23%
15:00 +42°C° 0 mm 1 mps 747 mmHg 21%
16:00 +43°C° 0 mm 1 mps 746 mmHg 18%
17:00 +41°C° 0 mm 1 mps 746 mmHg 20%
18:00 +39°C° 0 mm 2 mps 747 mmHg 21%
19:00 +38°C° 0 mm 2 mps 747 mmHg 23%
20:00 +36°C° 0 mm 4 mps 748 mmHg 34%
21:00 +34°C° 0 mm 5 mps 748 mmHg 45%
22:00 +33°C° 0 mm 6 mps 749 mmHg 56%
23:00 +32°C° 0 mm 6 mps 749 mmHg 61%

5 March, Friday

Time Temperature Precipitation Wind Pressure Humidity
00:00 +30°C° 0 mm 5 mps 749 mmHg 65%
01:00 +29°C° 0 mm 4 mps 749 mmHg 70%
02:00 +29°C° 0 mm 3 mps 749 mmHg 73%
03:00 +28°C° 0 mm 3 mps 749 mmHg 76%
04:00 +28°C° 0 mm 2 mps 749 mmHg 79%
05:00 +27°C° 0 mm 2 mps 750 mmHg 81%
06:00 +27°C° 0 mm 2 mps 750 mmHg 83%
07:00 +27°C° 0 mm 2 mps 750 mmHg 85%
08:00 +29°C° 0 mm 2 mps 751 mmHg 76%
09:00 +31°C° 0 mm 3 mps 751 mmHg 67%
10:00 +33°C° 0 mm 3 mps 752 mmHg 59%
11:00 +35°C° 0 mm 3 mps 751 mmHg 53%
12:00 +36°C° 0 mm 3 mps 750 mmHg 48%
13:00 +37°C° 0 mm 2 mps 750 mmHg 43%
14:00 +38°C° 0 mm 2 mps 749 mmHg 40%
15:00 +38°C° 0 mm 2 mps 748 mmHg 37%
16:00 +39°C° 0 mm 3 mps 747 mmHg 34%
17:00 +38°C° 0 mm 3 mps 747 mmHg 36%
18:00 +37°C° 0 mm 3 mps 748 mmHg 38%
19:00 +36°C° 0 mm 3 mps 748 mmHg 40%
20:00 +34°C° 0 mm 4 mps 749 mmHg 48%
21:00 +33°C° 0 mm 5 mps 749 mmHg 56%
22:00 +32°C° 0 mm 6 mps 750 mmHg 64%
23:00 +30°C° 0 mm 5 mps 750 mmHg 68%
Show more

We Need Your Consent

Meteoprog and our Service Providers may store and access personal data such as cookies, device identifiers or other similar technologies on your device and process such data to personalise content and ads, as well as provide social media features and to analyse the traffic.

  • Store and/or access information on your device

    Cookies, device identifiers or other information can be stored or accessed on your device for the purposes indicated above.

  • Personalised ads and content, ad and content measurement, audience insights, and products development

    Ads and content can be personalised based on a profile. More data can be added to better personalise ads and content. Ad and content performance can be measured. Insights about the audience who saw the ads and content can be derived. Such data can be used to develop or improve user’s experience, systems and software.

By clicking ‘I Agree’ you will allow the use of indicated cookies, device identifiers, web beacons or other similar technologies. Your settings can be changed in the browser on your device.

For certain purposes, legitimate interests may be relied on, rather than consent. You can read more about this in our Privacy and Cookie Policy.